Flag Weather past 2 weeks in Porto Alegre, Rio Grande do Sul, Brazil

Now
77 °F

Broken clouds.


Feels Like: 79 °F
Forecast: 66 / 80 °F
Wind: 14 mph from South

Location: Porto Alegre Aero-Porto

Current Time: Nov 27, 2014 at 2:03:46 PM

Latest Report: Nov 27, 2014 at 1:00 PM


Visibility: N/A

Pressure: 29.95 "Hg

Humidity: 69%

Dew point: 66 °F

Location of Porto AlegreLocation

Historic Weather in Porto Alegre — Graph

°F

Porto Alegre temperature yesterday

Maximum temperature yesterday: 84 °F (at 2:00 PM)
Minimum temperature yesterday: 72 °F (at 2:00 AM)
Average temperature yesterday: 76 °F

Past Weeks' High & Low Weather Summary

 TemperatureHumidityPressure
High93 °F (Nov 24, 5:00 PM)100% (Nov 15, 7:00 AM)30.09 "Hg (Nov 15, 7:00 AM)
Low36 °F (Nov 25, 8:00 AM)25% (Nov 18, 3:00 PM)29.68 "Hg (Nov 22, 3:00 AM)
Average74 °F69%29.90 "Hg
* Reported Nov 12 1:00 PM — Nov 27 1:00 PM, Porto Alegre, Weather by CustomWeather, © 2014

Note: Actual official high and low records may vary slightly from our data, if they occured in-between our weather recording intervals... More about our weather records

Advertising

Porto Alegre weather history for previous 24 hours

 ConditionsComfort  
Time TempWeatherWind HumidityBarometerVisibility
1:00 PM
Nov 27
77 °FBroken clouds.14 mph69%29.95 "HgN/A
12:00 PM79 °FScattered clouds.8 mph65%29.95 "HgN/A
11:00 AM77 °FScattered clouds.7 mph74%29.95 "HgN/A
10:00 AM77 °FScattered clouds.6 mph69%29.95 "HgN/A
9:00 AM75 °FBroken clouds.5 mph78%29.95 "HgN/A
8:00 AM73 °FScattered clouds.6 mph83%29.92 "HgN/A
7:00 AM70 °FPartly sunny.2 mph94%29.92 "HgN/A
6:00 AM70 °FPassing clouds.3 mph94%29.89 "HgN/A
5:00 AM70 °FClear.5 mph94%29.86 "Hg10 mi
4:00 AM70 °FClear.5 mph94%29.86 "Hg10 mi
3:00 AM72 °FPassing clouds.8 mph88%29.89 "HgN/A
2:00 AM72 °FPassing clouds.7 mph88%29.89 "HgN/A
1:00 AM73 °FPassing clouds.9 mph83%29.92 "HgN/A
12:00 AM73 °FPassing clouds.8 mph83%29.92 "HgN/A
11:00 PM
Nov 26
73 °FPassing clouds.9 mph83%29.89 "HgN/A
10:00 PM75 °FPassing clouds.12 mph78%29.89 "HgN/A
9:00 PM75 °FPassing clouds.10 mph78%29.86 "HgN/A
8:00 PM77 °FPartly sunny.12 mph79%29.83 "HgN/A
7:00 PM79 °FPartly sunny.13 mph74%29.83 "HgN/A
6:00 PM81 °FPartly sunny.15 mph70%29.80 "HgN/A
5:00 PM82 °FPartly sunny.14 mph62%29.80 "HgN/A
4:00 PM84 °FPartly sunny.13 mph58%29.80 "HgN/A
3:00 PM84 °FPartly sunny.13 mph58%29.80 "HgN/A
2:00 PM84 °FPartly sunny.13 mph55%29.83 "HgN/A
Weather by CustomWeather, © 2014

See weather overviewHow to use our weather pages